Location: Unspecified
(48.8656°N, 0.0000°E)
Time: 05:04:51
(UTC+00:00)

SR - Pass Details

Date: 26 June 2019
Orbit: 578 x 878 km, 66.7° (Epoch: 16 August)

Event Time Altitude Azimuth Distance (km) Brightness Sun altitude
Rises 11:49:33 0° 319° (NW) 3,027 ? 64.4°
Reaches altitude 10° 11:51:53 10° 312° (NW) 2,155 ? 64.4°
Maximum altitude 11:56:28 40° 243° (WSW) 1,073 ? 64.5°
Drops below altitude 10° 12:01:24 10° 175° (S) 2,328 ? 64.5°
Sets 12:04:01 0° 168° (SSE) 3,300 ? 64.5°
